FW4174 Weather Reports


time (UTC)temp
C
wind
direction
speed
KPH
gust
KPH
rain 1hr
cm
rain 24hr
cm
rain mn
cm
humidity
%
barometer
mb
20260507033549 3 0 0.0 0.0 0.00 0.00 0.00 58 1014.4
20260507033052 3 0 0.0 1.6 0.00 0.00 0.00 58 1014.4
20260507032544 3 0 0.0 3.2 0.00 0.00 0.00 57 1014.4
20260507032045 4 0 0.0 3.2 0.00 0.00 0.00 56 1014.4
20260507031551 4 0 0.0 3.2 0.00 0.00 0.00 55 1014.4
20260507031048 4 0 0.0 4.8 0.00 0.00 0.00 55 1014.5
20260507030545 4 28 1.6 4.8 0.00 0.00 0.00 55 1014.5
20260507030105 5 28 1.6 4.8 0.00 0.00 0.00 54 1014.6
20260507025544 5 28 1.6 4.8 0.00 0.00 0.00 54 1014.5
20260507025044 5 28 3.2 4.8 0.00 0.00 0.00 54 1014.5
20260507024551 5 25 3.2 4.8 0.00 0.00 0.00 54 1014.5
20260507024049 5 32 1.6 4.8 0.00 0.00 0.00 54 1014.5
20260507023547 5 0 3.2 4.8 0.00 0.00 0.00 54 1014.5
20260507023052 5 32 0.0 4.8 0.00 0.00 0.00 54 1014.5
20260507022544 5 0 0.0 4.8 0.00 0.00 0.00 52 1014.3
20260507022045 5 32 1.6 4.8 0.00 0.00 0.00 52 1014.4
20260507021613 5 32 3.2 6.4 0.00 0.00 0.00 51 1014.3
20260507021045 6 32 1.6 6.4 0.00 0.00 0.00 50 1014.3
20260507020545 6 28 3.2 6.4 0.00 0.00 0.00 50 1014.2
20260507020104 6 26 3.2 6.4 0.00 0.00 0.00 50 1014.2
20260507015545 6 5 3.2 6.4 0.00 0.00 0.00 50 1014.2
20260507015044 6 23 3.2 4.8 0.00 0.00 0.00 49 1014.2
20260507014612 6 25 3.2 4.8 0.00 0.00 0.00 49 1014.1
20260507014045 7 19 3.2 4.8 0.00 0.00 0.00 49 1014.1
20260507013544 7 360 1.6 4.8 0.00 0.00 0.00 48 1014.2
20260507013056 7 0 1.6 4.8 0.00 0.00 0.00 48 1014.3
20260507012545 7 352 0.0 8.0 0.00 0.00 0.00 47 1014.2
20260507012045 7 9 1.6 9.7 0.00 0.00 0.00 46 1014.3
20260507011554 8 5 3.2 11.3 0.00 0.00 0.00 45 1014.2
20260507011045 8 321 6.4 12.9 0.00 0.00 0.00 45 1014.3
20260507010548 8 15 4.8 12.9 0.00 0.00 0.00 44 1014.3
20260507010105 8 17 6.4 14.5 0.00 0.00 0.00 44 1014.2
20260507005546 8 346 6.4 14.5 0.00 0.00 0.00 44 1014.2
20260507005045 8 352 4.8 14.5 0.00 0.00 0.00 44 1014.3
20260507004557 8 30 4.8 14.5 0.00 0.00 0.00 43 1014.2
20260507004045 8 30 6.4 14.5 0.00 0.00 0.00 43 1014.2
20260507003545 8 330 8.0 14.5 0.00 0.00 0.00 44 1014.2
20260507003055 8 340 4.8 9.7 0.00 0.00 0.00 44 1014.2
20260507002545 8 323 3.2 8.0 0.00 0.00 0.00 43 1014.2
20260507002045 8 325 1.6 9.7 0.00 0.00 0.00 43 1014.3
20260507001602 9 0 1.6 14.5 0.00 0.00 0.00 44 1014.3
20260507001045 9 338 4.8 19.3 0.00 0.00 0.00 42 1014.3
20260507000544 9 350 6.4 19.3 0.00 0.00 0.00 41 1014.3
20260507000051 9 316 6.4 16.1 0.00 0.00 0.00 42 1014.4
20260506235544 10 305 0.0 12.9 0.00 0.00 0.00 42 1014.4
20260506235044 10 326 3.2 12.9 0.00 0.00 0.00 41 1014.5
20260506234550 10 350 1.6 12.9 0.00 0.00 0.00 42 1014.5
20260506234044 10 338 4.8 12.9 0.00 0.00 0.00 41 1014.5
20260506233545 10 329 4.8 16.1 0.00 0.00 0.00 42 1014.5
20260506233055 10 311 4.8 16.1 0.00 0.00 0.00 43 1014.6
20260506232545 10 342 8.0 16.1 0.00 0.00 0.00 42 1014.6
20260506232045 10 328 8.0 16.1 0.00 0.00 0.00 42 1014.6
20260506231550 10 326 4.8 11.3 0.00 0.00 0.00 42 1014.7
20260506231048 10 331 3.2 11.3 0.00 0.00 0.00 40 1014.6
20260506230548 10 268 3.2 9.7 0.00 0.00 0.00 41 1014.8
20260506230103 11 287 3.2 9.7 0.00 0.00 0.00 40 1014.7
20260506225545 11 322 1.6 11.3 0.00 0.00 0.00 39 1014.8
20260506225045 11 27 3.2 11.3 0.00 0.00 0.00 40 1014.8
20260506224558 11 294 3.2 12.9 0.00 0.00 0.00 39 1014.7
20260506224045 11 341 3.2 12.9 0.00 0.00 0.00 40 1014.8
20260506223543 11 287 6.4 12.9 0.00 0.00 0.00 40 1014.8
20260506223049 11 258 3.2 9.7 0.00 0.00 0.00 40 1014.8
20260506222544 11 300 3.2 11.3 0.00 0.00 0.00 41 1014.9
20260506222044 11 244 3.2 11.3 0.00 0.00 0.00 41 1014.9
20260506221553 11 267 6.4 11.3 0.00 0.00 0.00 40 1015.0
20260506221044 11 334 1.6 14.5 0.00 0.00 0.00 42 1015.0
20260506220544 10 17 3.2 14.5 0.00 0.00 0.00 44 1015.0
20260506220052 10 279 6.4 14.5 0.00 0.00 0.00 42 1015.1
20260506215549 11 323 6.4 14.5 0.00 0.00 0.00 41 1015.1
20260506215045 11 9 3.2 12.9 0.00 0.00 0.00 42 1015.1
20260506214550 11 279 4.8 12.9 0.00 0.00 0.00 43 1015.2
20260506214045 10 323 3.2 14.5 0.00 0.00 0.00 44 1015.3
20260506213545 10 319 4.8 14.5 0.00 0.00 0.00 42 1015.4
20260506213053 10 352 3.2 9.7 0.00 0.00 0.00 44 1015.4
20260506212549 10 0 3.2 14.5 0.00 0.00 0.00 44 1015.5
20260506212048 11 255 3.2 14.5 0.00 0.00 0.00 40 1015.5
20260506211550 10 336 4.8 9.7 0.00 0.00 0.00 44 1015.6
20260506211046 10 344 1.6 14.5 0.00 0.00 0.00 45 1015.7
20260506210547 10 309 3.2 14.5 0.00 0.00 0.00 43 1015.9
20260506210054 10 332 4.8 12.9 0.00 0.00 0.00 45 1015.9
20260506205543 10 281 3.2 12.9 0.00 0.00 0.00 42 1016.0
20260506205044 10 290 4.8 12.9 0.00 0.00 0.00 43 1016.1
20260506204551 10 291 1.6 14.5 0.00 0.00 0.00 46 1016.1
20260506204045 10 255 4.8 14.5 0.00 0.00 0.00 44 1016.1
20260506203544 10 242 3.2 12.9 0.00 0.00 0.00 42 1016.1
20260506203053 10 308 3.2 12.9 0.00 0.00 0.00 43 1016.1
20260506202544 11 272 3.2 12.9 0.00 0.00 0.00 43 1016.2
20260506202043 10 255 4.8 12.9 0.00 0.00 0.00 43 1016.2
20260506201607 10 273 4.8 14.5 0.00 0.00 0.00 44 1016.2
20260506201046 10 319 4.8 14.5 0.00 0.00 0.00 43 1016.2
20260506200545 10 277 3.2 14.5 0.00 0.00 0.00 44 1016.2
20260506200051 11 337 4.8 14.5 0.00 0.00 0.00 43 1016.2
20260506195545 11 11 6.4 17.7 0.00 0.00 0.00 43 1016.2
20260506195045 10 116 4.8 17.7 0.00 0.00 0.00 44 1016.2
20260506194553 10 105 3.2 11.3 0.00 0.00 0.00 46 1016.2
20260506194045 9 5 3.2 11.3 0.00 0.00 0.00 45 1016.3
20260506193544 9 275 3.2 11.3 0.00 0.00 0.00 46 1016.2
20260506193058 9 263 3.2 14.5 0.00 0.00 0.00 45 1016.3
20260506192545 10 34 3.2 14.5 0.00 0.00 0.00 45 1016.3
20260506192046 10 306 4.8 14.5 0.00 0.00 0.00 45 1016.3
20260506191602 10 264 3.2 14.5 0.00 0.00 0.00 47 1016.4
20260506191046 9 288 3.2 14.5 0.00 0.00 0.00 48 1016.4
20260506190547 8 335 3.2 14.5 0.00 0.00 0.00 47 1016.4
20260506190056 8 16 4.8 14.5 0.00 0.00 0.00 47 1016.3
20260506185545 8 265 4.8 14.5 0.00 0.00 0.00 47 1016.4
20260506185044 8 333 6.4 14.5 0.00 0.00 0.00 49 1016.5
20260506184558 8 360 4.8 12.9 0.00 0.00 0.00 48 1016.6
20260506184045 8 331 4.8 12.9 0.00 0.00 0.00 52 1016.6
20260506183545 8 249 4.8 12.9 0.00 0.00 0.00 49 1016.6
20260506183100 8 20 3.2 12.9 0.00 0.00 0.00 48 1016.5
20260506182543 8 285 3.2 12.9 0.00 0.00 0.00 48 1016.6
20260506182045 8 188 4.8 12.9 0.00 0.00 0.00 48 1016.6
20260506181553 8 277 3.2 9.7 0.00 0.00 0.00 48 1016.6
20260506181044 8 265 3.2 14.5 0.00 0.00 0.00 49 1016.8
20260506180544 8 259 3.2 14.5 0.00 0.00 0.00 49 1016.7
20260506180053 8 278 1.6 12.9 0.00 0.00 0.00 51 1016.8
20260506175543 7 271 4.8 12.9 0.00 0.00 0.00 49 1016.8
20260506175045 7 294 6.4 12.9 0.00 0.00 0.00 50 1017.0
20260506174552 7 245 3.2 12.9 0.00 0.00 0.00 50 1016.9
20260506174044 7 249 1.6 12.9 0.00 0.00 0.00 52 1016.9
20260506173545 7 352 3.2 12.9 0.00 0.00 0.00 52 1016.9
20260506173112 7 305 3.2 11.3 0.00 0.00 0.00 52 1017.0
20260506172546 7 294 4.8 11.3 0.00 0.00 0.00 50 1017.0
20260506172044 7 274 1.6 12.9 0.00 0.00 0.00 52 1017.1
20260506171558 7 321 3.2 12.9 0.00 0.00 0.00 54 1017.1
20260506171045 7 324 4.8 12.9 0.00 0.00 0.00 52 1017.1
20260506170545 7 306 4.8 8.0 0.00 0.00 0.00 53 1017.1
20260506170057 7 340 3.2 11.3 0.00 0.00 0.00 52 1017.2
20260506165545 7 302 3.2 12.9 0.00 0.00 0.00 55 1017.2
20260506165046 6 296 4.8 12.9 0.00 0.00 0.00 52 1017.3
20260506164555 6 17 4.8 11.3 0.00 0.00 0.00 53 1017.2
20260506164045 6 290 4.8 12.9 0.00 0.00 0.00 54 1017.2
20260506163546 6 0 3.2 12.9 0.00 0.00 0.00 54 1017.4
20260506163102 6 286 4.8 12.9 0.00 0.00 0.00 54 1017.3
20260506162545 6 0 3.2 12.9 0.00 0.00 0.00 54 1017.3
20260506162043 6 279 3.2 12.9 0.00 0.00 0.00 54 1017.3
20260506161550 6 293 3.2 12.9 0.00 0.00 0.00 54 1017.4
20260506161043 6 279 3.2 12.9 0.00 0.00 0.00 53 1017.3
20260506160543 6 288 3.2 9.7 0.00 0.00 0.00 54 1017.3
20260506160052 6 281 4.8 9.7 0.00 0.00 0.00 54 1017.2
20260506155543 6 278 3.2 11.3 0.00 0.00 0.00 54 1017.3
20260506155043 6 292 3.2 11.3 0.00 0.00 0.00 53 1017.2
20260506154601 6 292 3.2 11.3 0.00 0.00 0.00 53 1017.2
20260506154047 6 275 3.2 11.3 0.00 0.00 0.00 53 1017.2
20260506153547 6 5 3.2 12.9 0.00 0.00 0.00 53 1017.1
20260506153051 6 292 4.8 12.9 0.00 0.00 0.00 52 1017.1
20260506152544 6 278 3.2 12.9 0.00 0.00 0.00 54 1017.1
20260506152049 6 261 1.6 12.9 0.00 0.00 0.00 55 1017.0
20260506151551 6 31 3.2 11.3 0.00 0.00 0.00 55 1017.1
20260506151042 6 296 3.2 11.3 0.00 0.00 0.00 54 1017.1
20260506150545 6 296 3.2 11.3 0.00 0.00 0.00 56 1017.1
20260506150055 5 290 3.2 11.3 0.00 0.00 0.00 56 1017.1
20260506145544 5 271 3.2 9.7 0.00 0.00 0.00 55 1017.0
20260506145042 5 0 3.2 11.3 0.00 0.00 0.00 57 1017.1
20260506144554 5 292 3.2 11.3 0.00 0.00 0.00 57 1017.1
20260506144045 5 307 3.2 11.3 0.00 0.00 0.00 57 1017.1
20260506143543 5 305 3.2 8.0 0.00 0.00 0.00 57 1017.2
20260506143054 5 296 1.6 6.4 0.00 0.00 0.00 57 1017.2
20260506142543 5 244 3.2 6.4 0.00 0.00 0.00 58 1017.1
20260506142046 5 292 1.6 9.7 0.00 0.00 0.00 59 1017.1
20260506141554 5 265 1.6 9.7 0.00 0.00 0.00 60 1017.0
20260506141046 5 294 1.6 8.0 0.00 0.00 0.00 60 1017.0
20260506140546 5 284 3.2 8.0 0.00 0.00 0.00 61 1017.1
20260506140101 5 294 0.0 4.8 0.00 0.00 0.00 63 1017.1
20260506135546 4 0 0.0 4.8 0.00 0.00 0.00 64 1017.0
20260506135045 4 286 0.0 4.8 0.00 0.00 0.00 64 1017.1
20260506134552 4 0 1.6 4.8 0.00 0.00 0.00 64 1017.1
20260506134045 4 279 0.0 4.8 0.00 0.00 0.00 65 1017.0
20260506133546 4 292 1.6 8.0 0.00 0.00 0.00 65 1016.9
20260506133100 4 279 1.6 8.0 0.00 0.00 0.00 65 1017.0
20260506132546 4 306 1.6 6.4 0.00 0.00 0.00 64 1017.0
20260506132045 3 294 1.6 6.4 0.00 0.00 0.00 66 1017.0
20260506131552 3 0 1.6 6.4 0.00 0.00 0.00 66 1016.9
20260506131044 3 297 1.6 6.4 0.00 0.00 0.00 66 1016.8
20260506130546 3 294 1.6 6.4 0.00 0.00 0.00 66 1016.7
20260506130056 3 276 1.6 4.8 0.00 0.00 0.00 66 1016.8
20260506125545 3 296 1.6 4.8 0.00 0.00 0.00 66 1016.7
20260506125045 3 270 1.6 4.8 0.00 0.00 0.00 66 1016.7
20260506124559 3 290 0.0 3.2 0.00 0.00 0.00 67 1016.6
20260506124045 3 275 0.0 4.8 0.00 0.00 0.00 67 1016.5
20260506123548 3 281 0.0 4.8 0.00 0.00 0.00 67 1016.6
20260506123050 3 278 0.0 4.8 0.00 0.00 0.00 67 1016.4
20260506122545 3 0 1.6 4.8 0.00 0.00 0.00 67 1016.4
20260506122044 3 0 0.0 4.8 0.00 0.00 0.00 67 1016.2
20260506121553 3 292 0.0 3.2 0.00 0.00 0.00 68 1016.2
20260506121044 3 292 0.0 3.2 0.00 0.00 0.00 67 1016.2
20260506120545 3 0 0.0 3.2 0.00 0.00 0.00 67 1016.1
20260506120108 3 0 0.0 3.2 0.00 0.00 0.00 68 1016.1
20260506115546 3 292 0.0 3.2 0.00 0.00 0.00 67 1015.9
20260506115044 3 0 0.0 3.2 0.00 0.00 0.00 67 1015.9
20260506114603 3 0 0.0 1.6 0.00 0.00 0.00 67 1015.9
20260506114045 3 0 0.0 1.6 0.00 0.00 0.00 67 1015.7
20260506113545 3 0 0.0 3.2 0.00 0.00 0.00 67 1015.6
20260506113050 3 292 0.0 3.2 0.00 0.00 0.00 67 1015.5
20260506112545 3 292 0.0 3.2 0.00 0.00 0.00 67 1015.5
20260506112045 2 296 0.0 1.6 0.00 0.00 0.00 67 1015.5
20260506111554 3 0 0.0 4.8 0.00 0.00 0.00 67 1015.4
20260506111045 3 0 1.6 4.8 0.00 0.00 0.00 66 1015.4
20260506110545 2 296 0.0 3.2 0.00 0.00 0.00 67 1015.3
20260506110053 2 296 0.0 3.2 0.00 0.00 0.00 66 1015.3
20260506105549 2 0 0.0 3.2 0.00 0.00 0.00 67 1015.2
20260506105045 2 0 0.0 3.2 0.00 0.00 0.00 67 1015.0
20260506104552 2 0 0.0 3.2 0.00 0.00 0.00 67 1014.9
20260506104045 2 296 0.0 3.2 0.00 0.00 0.00 68 1014.9
20260506103544 2 319 0.0 3.2 0.00 0.00 0.00 68 1014.8
20260506103048 2 0 0.0 3.2 0.00 0.00 0.00 68 1015.0
20260506102545 2 0 0.0 3.2 0.00 0.00 0.00 68 1015.1
20260506102044 2 0 0.0 3.2 0.00 0.00 0.00 67 1015.0
20260506101553 2 319 0.0 1.6 0.00 0.00 0.00 67 1014.8
20260506101046 2 0 0.0 1.6 0.00 0.00 0.00 68 1014.8
20260506100546 2 0 0.0 1.6 0.00 0.00 0.00 67 1014.9
20260506100051 2 0 0.0 1.6 0.00 0.00 0.00 67 1015.0
20260506095546 2 0 0.0 3.2 0.00 0.00 0.00 67 1015.1
20260506095046 2 0 0.0 4.8 0.00 0.00 0.00 66 1015.1
20260506094552 3 0 1.6 4.8 0.00 0.00 0.00 65 1015.1
20260506094045 3 319 0.0 3.2 0.00 0.00 0.00 65 1015.0
20260506093545 3 319 0.0 3.2 0.00 0.00 0.00 65 1014.9
20260506093110 3 319 0.0 3.2 0.00 0.00 0.00 65 1014.8
20260506092545 3 319 1.6 3.2 0.00 0.00 0.00 65 1014.7
20260506092044 3 319 0.0 3.2 0.00 0.00 0.00 65 1014.9
20260506091551 3 0 0.0 3.2 0.00 0.00 0.00 65 1014.8
20260506091044 3 0 0.0 4.8 0.00 0.00 0.00 65 1014.7
20260506090545 3 0 0.0 4.8 0.00 0.00 0.00 65 1014.7
20260506090058 3 319 1.6 4.8 0.00 0.00 0.00 65 1014.7
20260506085545 3 0 0.0 3.2 0.00 0.00 0.00 65 1014.6
20260506085047 3 0 0.0 3.2 0.00 0.00 0.00 65 1014.8
20260506084548 3 319 1.6 3.2 0.00 0.00 0.00 65 1014.8
20260506084045 3 319 1.6 3.2 0.00 0.00 0.00 65 1014.7
20260506083548 3 319 0.0 3.2 0.00 0.00 0.00 65 1014.6
20260506083055 3 0 0.0 3.2 0.00 0.00 0.00 65 1014.6
20260506082544 3 319 1.6 3.2 0.00 0.00 0.00 64 1014.6
20260506082044 3 319 0.0 3.2 0.00 0.00 0.00 65 1014.9
20260506081549 3 0 0.0 3.2 0.00 0.00 0.00 65 1015.0
20260506081045 3 319 1.6 3.2 0.00 0.00 0.00 64 1014.9
20260506080545 3 319 0.0 3.2 0.00 0.00 0.00 64 1014.8
20260506080107 3 0 0.0 3.2 0.00 0.00 0.00 64 1014.6
20260506073105 3 0 1.6 3.2 0.00 0.00 0.00 62 1014.5
20260506072545 3 319 0.0 3.2 0.00 0.00 0.00 63 1014.6
20260506072047 3 319 1.6 3.2 0.00 0.00 0.00 63 1014.6
20260506071554 3 319 1.6 4.8 0.00 0.00 0.00 63 1014.8
20260506071043 3 0 1.6 4.8 0.00 0.00 0.00 63 1014.8
20260506070545 3 319 1.6 4.8 0.00 0.00 0.00 63 1014.7
20260506062043 3 0 0.0 3.2 0.00 0.00 0.00 65 1014.3
20260506061600 3 319 1.6 3.2 0.00 0.00 0.00 65 1014.3
20260506061046 3 319 0.0 3.2 0.00 0.00 0.00 64 1014.4
20260506060545 3 0 1.6 3.2 0.00 0.00 0.00 64 1014.4
20260506051043 3 319 0.0 3.2 0.00 0.00 0.00 62 1014.2
20260506050545 3 319 1.6 3.2 0.00 0.00 0.00 62 1014.3
20260506045047 3 319 1.6 3.2 0.00 0.00 0.00 62 1014.3
20260506044604 3 0 1.6 4.8 0.00 0.00 0.00 62 1014.3
20260506044047 3 319 1.6 4.8 0.00 0.00 0.00 62 1014.3
20260506043547 3 319 1.6 3.2 0.00 0.00 0.00 62 1014.3
20260506043053 3 319 1.6 3.2 0.00 0.00 0.00 62 1014.3
20260506042547 3 319 0.0 3.2 0.00 0.00 0.00 62 1014.3
20260506042047 3 319 1.6 3.2 0.00 0.00 0.00 62 1014.2
20260506041605 3 319 1.6 3.2 0.00 0.00 0.00 61 1014.1
20260506041046 3 319 1.6 4.8 0.00 0.00 0.00 61 1014.0
20260506040543 3 319 0.0 4.8 0.00 0.00 0.00 61 1014.0
20260506040055 3 319 1.6 4.8 0.00 0.00 0.00 60 1014.1
20260506035544 3 0 1.6 3.2 0.00 0.00 0.00 61 1014.0
20260506035044 3 319 1.6 3.2 0.00 0.00 0.00 61 1014.0
20260506034551 3 319 1.6 3.2 0.00 0.00 0.00 61 1014.0
20260506034045 3 319 1.6 4.8 0.00 0.00 0.00 61 1014.0